Tracking 35274 objects as of 11-Sep-2026
HD Live streaming from Space Station
objects crossing your sky now

SL-8 DEB


SL-8 DEB is no longer on orbit


NORAD ID: 1491
Int'l Code: 1965-020BR
Launch date: March 15, 1965
Source: Commonwealth of Independent States (former USSR) (CIS)
Launch site: TYURATAM MISSILE AND SPACE COMPLEX (TTMTR)
Decay date: 1968-09-10

Note: This is SATELLITE DEBRIS
Your satellite tracking list
Your tracking list is empty




NASA's NSSDC Master Catalog

Two Line Element Set (TLE):
1 01491U 65020 BR 68228.67532346  .00000000 +00000-0 +00000-0 0  9990
2 01491 055.9947 325.0607 0023170 001.8476 358.2670 15.72757403170042
Source of the keplerian elements: AFSPC